Time,TemperatureF,DewpointF,PressureIn,WindDirection,WindDirectionDegrees,WindSpeedMPH,WindSpeedGustMPH,Humidity,HourlyPrecipIn,Conditions,Clouds,dailyrainin,SoftwareType,DateUTC
2013-11-30 00:01:00,43.0,23.0,-100.00,WNW,295,4.0,11.0,45,-99.99,,,-99.99,,2013-11-30 08:01:00,
2013-11-30 00:22:00,43.0,23.0,-100.00,WNW,300,4.0,9.0,45,-99.99,,,-99.99,,2013-11-30 08:22:00,
2013-11-30 00:42:00,42.0,23.0,-100.00,NW,315,4.0,7.0,47,-99.99,,,-99.99,,2013-11-30 08:42:00,
2013-11-30 01:43:00,44.0,23.0,-100.00,NNW,335,7.0,11.0,43,-99.99,,,-99.99,,2013-11-30 09:43:00,
2013-11-30 01:54:00,44.0,23.0,-100.00,NNW,335,7.0,11.0,43,-99.99,,,-99.99,,2013-11-30 09:54:00,
2013-11-30 02:03:00,44.0,23.0,-100.00,NNW,335,7.0,11.0,43,-99.99,,,-99.99,,2013-11-30 10:03:00,
2013-11-30 02:42:00,43.0,23.0,-100.00,WNW,300,5.0,9.0,44,-99.99,,,-99.99,,2013-11-30 10:42:00,
2013-11-30 03:42:00,46.0,23.0,-100.00,NNW,330,6.0,20.0,40,-99.99,,,-99.99,,2013-11-30 11:42:00,
2013-11-30 04:42:00,44.0,23.0,-100.00,WNW,300,5.0,11.0,43,-99.99,,,-99.99,,2013-11-30 12:42:00,
2013-11-30 04:52:00,44.0,23.0,-100.00,WNW,300,5.0,11.0,43,-99.99,,,-99.99,,2013-11-30 12:52:00,
2013-11-30 05:01:00,44.0,23.0,-100.00,WNW,300,5.0,11.0,43,-99.99,,,-99.99,,2013-11-30 13:01:00,
2013-11-30 08:23:00,37.0,22.0,-100.00,NW,325,4.0,11.0,53,-99.99,,,-99.99,,2013-11-30 16:23:00,
2013-11-30 08:33:00,37.0,22.0,-100.00,NW,325,4.0,11.0,53,-99.99,,,-99.99,,2013-11-30 16:33:00,
2013-11-30 10:21:00,44.0,24.0,-100.00,NNW,330,7.0,13.0,46,-99.99,,,-99.99,,2013-11-30 18:21:00,
2013-11-30 10:33:00,44.0,24.0,-100.00,NNW,330,7.0,13.0,46,-99.99,,,-99.99,,2013-11-30 18:33:00,
2013-11-30 11:42:00,49.0,24.0,-100.00,NNW,330,11.0,19.0,37,-99.99,,,-99.99,,2013-11-30 19:42:00,
2013-11-30 16:21:00,52.0,26.0,-100.00,NNW,330,6.0,12.0,36,-99.99,,,-99.99,,2013-12-01 00:21:00,
2013-11-30 16:42:00,51.0,25.0,-100.00,North,355,5.0,9.0,37,-99.99,,,-99.99,,2013-12-01 00:42:00,
2013-11-30 16:52:00,49.0,25.0,-100.00,NW,315,3.0,6.0,38,-99.99,,,-99.99,,2013-12-01 00:52:00,
2013-11-30 17:11:00,49.0,25.0,-100.00,NW,305,2.0,6.0,39,-99.99,,,-99.99,,2013-12-01 01:11:00,
2013-11-30 17:42:00,48.0,25.0,-100.00,NW,320,2.0,6.0,41,-99.99,,,-99.99,,2013-12-01 01:42:00,
2013-11-30 17:52:00,47.0,26.0,-100.00,WNW,285,1.0,6.0,42,-99.99,,,-99.99,,2013-12-01 01:52:00,
2013-11-30 18:11:00,47.0,25.0,-100.00,NW,320,2.0,6.0,43,-99.99,,,-99.99,,2013-12-01 02:11:00,
2013-11-30 18:42:00,48.0,26.0,-100.00,NNW,340,7.0,11.0,42,-99.99,,,-99.99,,2013-12-01 02:42:00,
2013-11-30 20:02:00,-999.0,-99.9,-100.00,NNW,345,2.0,6.0,-999,-99.99,,,-99.99,,2013-12-01 04:02:00,
2013-11-30 20:12:00,45.0,25.0,-100.00,NNW,345,2.0,6.0,44,-99.99,,,-99.99,,2013-12-01 04:12:00,
2013-11-30 20:42:00,46.0,25.0,-100.00,NW,325,3.0,7.0,44,-99.99,,,-99.99,,2013-12-01 04:42:00,
2013-11-30 20:52:00,45.0,25.0,-100.00,NNW,330,4.0,7.0,45,-99.99,,,-99.99,,2013-12-01 04:52:00,
2013-11-30 21:12:00,45.0,25.0,-100.00,NNW,340,3.0,9.0,45,-99.99,,,-99.99,,2013-12-01 05:12:00,
2013-11-30 21:22:00,44.0,25.0,-100.00,NNW,330,1.0,2.0,47,-99.99,,,-99.99,,2013-12-01 05:22:00,
2013-11-30 21:42:00,44.0,25.0,-100.00,NNW,330,4.0,7.0,48,-99.99,,,-99.99,,2013-12-01 05:42:00,
2013-11-30 21:53:00,44.0,26.0,-100.00,NNW,330,5.0,9.0,49,-99.99,,,-99.99,,2013-12-01 05:53:00,
2013-11-30 22:12:00,44.0,26.0,-100.00,NNW,330,3.0,6.0,49,-99.99,,,-99.99,,2013-12-01 06:12:00,
2013-11-30 22:42:00,45.0,27.0,-100.00,NW,320,4.0,10.0,48,-99.99,,,-99.99,,2013-12-01 06:42:00,
2013-11-30 23:12:00,45.0,26.0,-100.00,WNW,290,4.0,9.0,48,-99.99,,,-99.99,,2013-12-01 07:12:00,
2013-11-30 23:42:00,45.0,26.0,-100.00,North,350,6.0,9.0,48,-99.99,,,-99.99,,2013-12-01 07:42:00,